Location: Bratsk-Energetik
(56.3300°N, 101.7600°E)
Time: 23:55:55
(UTC+08:00)

ISS - Pass Details

Date: 15 May 2021
Orbit: 417 x 422 km, 51.6° (Epoch: 13 June)

Event Time Altitude Azimuth Distance (km) Brightness Sun altitude
Rises 03:26:20 0° 271° (W) 2,373 -0.2 -9.5°
Reaches altitude 10° 03:28:45 10° 256° (WSW) 1,507 -1.4 -9.3°
Maximum altitude 03:31:24 22° 204° (SSW) 992 -2.5 -9.1°
Drops below altitude 10° 03:34:03 10° 152° (SSE) 1,505 -1.2 -8.9°
Sets 03:36:27 0° 136° (SE) 2,368 -0.1 -8.7°
